Wind_Speed
30 29 27 27 27 27 28 27 26 24 24 23 22 21 20 20 20 19 19 20 19 18 18 19 19 19 19 19 19 19 19 20 20 19 19 20 21 22 22 22 22 22 23 23
31 30 29 29 28 28 28 28 28 27 26 25 24 23 22 22 22 21 21 22 20 20 21 21 21 21 21 21 20 20 20 20 20 19 20 21 22 22 22 22 23 24 24 24
31 30 30 31 30 29 29 28 28 27 26 26 25 25 25 24 24 23 23 23 22 22 22 22 22 22 22 22 21 21 21 21 20 20 21 22 23 23 22 23 23 24 23 23
32 31 32 30 29 30 29 28 28 28 27 27 26 26 27 27 25 24 23 24 23 23 22 23 22 22 22 22 23 23 23 22 21 21 21 22 23 23 22 23 23 23 23 23
32 32 32 31 30 28 29 29 29 28 28 27 26 27 29 27 26 25 25 25 25 25 24 23 23 23 23 23 23 24 24 23 23 22 22 22 23 23 24 24 24 24 24 24
34 34 32 31 30 29 30 31 30 28 28 27 27 27 26 25 26 26 26 26 26 26 26 25 25 24 24 24 24 24 24 24 23 23 23 23 23 24 25 25 25 25 26 26
35 35 34 33 31 29 30 31 30 29 28 27 27 27 27 27 26 27 26 26 26 27 26 25 25 25 24 24 24 24 23 23 22 23 24 23 23 24 24 25 25 26 26 26
35 35 36 34 33 32 32 32 31 29 29 29 29 28 28 27 27 28 27 27 27 27 27 27 26 26 26 25 24 24 24 24 23 23 23 23 24 24 24 24 25 26 26 26
36 37 36 35 35 34 33 33 32 31 31 31 30 30 29 28 28 28 28 28 28 28 28 28 28 27 26 26 26 25 26 25 25 24 24 24 25 25 24 25 26 26 27 27
37 37 36 36 35 34 34 34 33 32 32 32 32 31 30 29 29 29 29 29 29 29 29 29 28 28 27 27 27 27 26 25 26 26 25 25 25 25 25 26 26 27 27 27
37 37 36 36 36 35 35 35 34 32 31 31 32 32 31 30 30 30 30 30 30 30 30 30 29 29 29 29 29 28 28 27 26 26 26 26 26 25 25 26 27 27 26 26
36 36 36 35 34 34 35 34 34 34 33 33 32 32 32 31 31 31 31 31 31 31 31 30 30 30 30 30 30 29 29 28 27 26 27 26 26 26 25 26 26 26 26 26
36 36 35 35 34 34 34 35 35 35 34 34 34 34 33 32 33 33 32 32 32 32 32 31 30 30 30 30 29 29 28 28 27 27 27 27 26 26 27 27 27 26 26 26
35 35 35 34 33 33 34 35 35 35 35 35 35 35 34 34 34 34 33 32 32 33 32 31 31 30 30 29 29 29 29 28 28 28 28 27 27 27 27 27 27 26 26 26
33 33 33 34 33 33 33 34 34 34 34 35 36 35 35 34 34 34 34 34 33 34 33 33 31 31 30 30 30 29 29 29 29 28 28 27 28 27 27 27 27 26 26 25
31 31 32 32 32 31 32 32 33 32 33 33 34 35 35 35 34 33 34 34 34 34 33 33 32 31 31 31 30 30 29 29 29 29 28 28 28 27 27 28 27 26 26 26
30 29 29 30 30 30 31 31 32 32 32 32 32 33 34 34 34 33 33 33 33 32 32 32 31 31 31 31 31 30 30 30 29 28 27 27 27 27 27 28 27 27 27 27
28 29 29 30 30 30 30 30 31 31 32 32 33 33 33 34 34 34 34 34 33 32 32 31 31 31 31 30 31 31 29 28 28 28 28 27 28 27 27 28 27 27 28 27
26 27 28 29 29 29 30 30 30 31 31 32 32 33 33 33 33 34 33 32 32 32 31 31 32 31 30 30 30 30 29 28 28 28 29 29 28 28 28 27 27 28 28 28
26 26 28 28 28 28 28 29 29 30 30 30 31 31 32 32 32 33 32 31 31 31 31 31 31 31 30 30 29 29 29 29 29 28 28 29 29 28 27 26 27 27 27 27
26 26 27 27 27 26 26 27 27 28 29 29 30 30 30 31 30 30 31 30 30 30 30 30 30 29 29 30 30 29 28 28 28 27 27 27 27 28 27 27 27 27 27 27
24 26 27 27 26 26 25 25 26 27 27 28 28 29 29 28 28 28 28 28 28 29 29 30 29 29 29 29 29 28 28 28 28 27 27 27 27 27 27 27 27 27 27 27
22 23 24 25 24 25 25 25 25 25 25 25 26 26 26 26 26 26 27 27 28 28 28 28 28 28 28 28 28 28 28 28 28 28 28 28 28 27 27 27 27 27 27 27
20 20 21 23 23 23 24 24 23 23 24 24 24 24 24 25 25 26 26 26 27 27 27 27 28 28 29 28 28 28 28 28 28 28 28 28 28 28 28 28 28 28 28 28
16 18 19 19 20 21 22 22 21 22 22 23 23 24 25 25 25 25 26 26 27 27 27 27 27 27 28 28 28 28 28 28 28 28 28 29 29 29 28 29 29 28 28 28
14 15 17 18 19 20 21 21 21 21 22 22 23 24 24 24 25 25 25 26 26 27 27 26 26 26 27 27 27 27 27 27 27 27 27 28 28 28 28 28 28 28 28 27
13 13 15 16 18 18 19 20 20 20 21 21 22 23 23 24 24 25 25 25 25 25 25 25 25 25 25 25 25 25 25 26 26 27 27 28 28 28 28 28 28 28 27 28
Wind_Direction
241 243 247 249 248 246 243 244 248 252 254 255 257 256 254 253 254 254 257 258 259 263 266 268 270 271 271 271 272 274 276 279 281 281 278 279 280 281 284 287 288 289 291 291
246 247 248 248 247 247 247 247 249 251 253 255 257 255 253 253 253 253 257 260 262 263 265 267 269 270 268 269 272 274 276 278 279 281 281 280 281 282 284 288 290 290 291 291
247 249 250 249 248 248 249 249 249 252 254 255 255 253 253 252 251 252 255 259 260 260 262 265 269 269 267 267 271 273 275 278 279 280 281 283 283 282 284 289 291 290 291 292
248 248 248 249 249 249 250 249 250 253 254 255 255 254 253 252 249 249 254 256 256 258 261 265 268 268 267 267 270 271 274 278 278 280 281 284 284 283 285 288 290 290 290 293
247 250 253 252 251 249 249 249 251 253 254 256 256 257 252 250 248 249 254 254 253 256 259 262 265 267 269 269 270 272 274 275 277 281 281 284 284 283 285 288 288 289 290 292
247 247 249 253 253 251 252 251 250 252 254 255 254 253 252 249 249 252 254 254 253 256 258 261 265 268 270 270 270 271 273 275 277 280 282 283 283 285 287 287 287 287 289 290
246 248 249 250 251 250 250 251 251 251 252 254 253 251 250 249 250 253 255 254 253 255 258 260 264 266 267 269 270 269 273 277 279 282 284 283 284 286 287 289 289 289 290 290
245 247 248 250 250 249 249 251 252 251 251 252 252 251 251 251 250 252 255 256 255 256 258 261 263 266 267 267 268 269 273 277 278 281 282 282 284 286 288 290 291 291 291 292
245 247 249 251 251 250 250 251 251 251 250 250 251 251 252 253 253 253 253 254 256 257 258 260 261 263 265 267 267 269 272 275 277 279 281 281 283 286 288 290 292 293 292 292
247 248 248 249 250 249 249 250 250 250 250 250 251 250 250 252 254 253 252 253 255 257 258 259 260 261 263 265 267 269 272 274 275 278 280 280 281 285 288 290 292 295 293 291
248 249 249 250 250 249 246 245 246 247 247 249 250 249 250 251 251 251 252 253 255 257 258 258 259 261 263 265 266 269 270 272 273 275 277 278 280 282 286 290 292 294 294 292
249 248 249 249 249 248 246 244 244 246 247 248 248 249 251 251 251 251 252 254 255 255 257 258 259 262 263 264 265 267 268 271 273 275 276 277 279 282 285 289 292 293 293 293
249 249 249 248 247 247 247 245 245 245 246 247 248 249 249 250 250 252 253 253 254 254 254 255 258 261 262 263 264 265 267 270 272 275 275 276 278 281 285 288 292 294 294 294
248 249 248 246 246 246 246 245 246 246 247 248 249 250 250 251 252 252 252 253 253 253 254 255 258 261 262 262 263 264 266 268 271 274 273 274 276 279 283 287 291 294 295 294
248 249 248 246 244 244 246 247 247 247 248 248 248 249 250 250 250 250 251 251 253 253 253 255 257 259 261 262 262 262 264 266 269 272 271 272 274 277 281 286 289 292 293 294
247 247 246 244 244 245 246 247 247 247 247 247 247 247 248 248 248 249 250 251 254 255 255 255 257 259 260 261 262 263 264 266 269 270 271 271 273 276 281 284 287 289 291 292
244 244 243 242 243 245 246 245 244 245 246 246 247 247 248 248 249 250 251 252 253 254 256 257 257 260 261 260 260 262 264 265 268 271 271 272 275 278 281 283 285 288 289 290
243 242 242 242 243 243 245 244 244 244 243 243 244 245 247 248 248 249 251 252 253 254 255 255 256 259 261 260 259 261 263 265 267 270 271 274 278 280 282 283 284 286 288 288
245 244 243 243 243 244 244 243 243 242 241 241 243 244 246 247 248 250 252 251 253 255 256 255 256 258 259 258 257 260 262 264 267 270 271 273 277 280 282 284 284 284 286 287
243 244 245 245 244 245 244 243 242 241 240 242 243 244 246 248 249 250 251 251 252 253 255 256 255 256 257 256 257 260 261 264 265 268 272 274 275 278 280 282 284 284 285 286
245 244 244 244 245 245 245 243 241 241 242 243 244 247 249 250 249 249 249 250 251 252 253 255 256 257 258 257 258 259 260 263 265 267 270 273 275 278 280 282 282 284 286 288
244 244 244 245 245 244 242 242 243 243 244 245 247 248 248 247 247 247 248 249 251 253 254 256 257 258 258 257 257 257 260 262 264 267 269 271 274 277 279 280 281 284 286 288
244 245 245 244 244 244 242 242 242 241 243 244 246 246 246 247 248 249 249 250 252 254 255 255 256 256 257 256 255 257 260 261 263 266 269 270 273 276 278 280 281 283 285 287
243 246 246 245 245 241 239 240 238 238 241 242 243 245 247 249 249 250 250 251 251 253 255 254 254 255 255 255 256 258 260 262 265 268 270 271 274 277 278 280 281 281 283 285
241 243 245 246 243 239 238 237 237 237 238 241 244 245 248 250 250 251 251 251 251 252 255 254 253 254 254 255 257 259 261 263 266 268 270 272 274 276 278 280 280 281 283 284
244 244 242 239 238 239 238 239 240 241 243 245 246 248 250 252 253 252 254 255 254 254 255 255 254 254 254 256 258 261 262 264 265 267 270 273 274 275 277 279 280 281 282 283
246 246 241 235 235 237 238 241 243 245 247 249 250 251 252 253 253 253 254 254 254 254 255 255 255 255 255 256 259 261 262 263 266 268 270 272 273 275 277 278 279 281 282 284
Height
5852 5854 5856 5858 5860 5862 5864 5866 5869 5871 5871 5871 5872 5873 5873 5874 5875 5876 5876 5876 5876 5877 5877 5877 5877 5877 5877 5876 5876 5875 5875 5874 5873 5872 5871 5870 5868 5867 5866 5864 5862 5861 5859 5857
5844 5846 5848 5850 5852 5854 5856 5858 5860 5862 5864 5864 5865 5866 5867 5868 5869 5870 5870 5871 5871 5871 5871 5872 5872 5872 5872 5871 5871 5870 5869 5868 5867 5866 5865 5864 5863 5861 5860 5858 5856 5855 5852 5850
5837 5839 5840 5842 5845 5847 5849 5850 5853 5854 5857 5857 5858 5859 5860 5861 5862 5863 5864 5864 5865 5865 5865 5866 5866 5866 5866 5866 5865 5865 5864 5863 5862 5861 5860 5858 5857 5855 5854 5852 5850 5848 5846 5844
5829 5831 5831 5837 5838 5839 5841 5843 5845 5846 5848 5849 5850 5851 5852 5854 5855 5856 5857 5858 5858 5859 5859 5860 5860 5860 5860 5859 5859 5859 5858 5857 5856 5855 5853 5852 5851 5849 5847 5846 5844 5842 5840 5838
5820 5821 5823 5827 5828 5831 5833 5835 5837 5838 5840 5841 5842 5843 5843 5845 5847 5849 5850 5851 5852 5852 5853 5853 5853 5853 5853 5853 5853 5852 5852 5851 5850 5848 5847 5846 5845 5843 5841 5840 5837 5835 5833 5831
5810 5812 5815 5820 5820 5822 5825 5826 5828 5830 5831 5833 5834 5836 5837 5838 5840 5841 5842 5843 5844 5845 5846 5846 5847 5847 5847 5847 5846 5846 5845 5844 5843 5842 5841 5840 5838 5837 5835 5833 5831 5829 5827 5825
5800 5803 5806 5809 5811 5814 5817 5818 5820 5821 5823 5825 5826 5828 5829 5831 5832 5833 5834 5835 5837 5838 5839 5839 5840 5840 5840 5840 5839 5839 5838 5838 5837 5836 5835 5833 5832 5830 5829 5826 5825 5823 5820 5818
5791 5794 5798 5799 5801 5805 5807 5808 5811 5813 5815 5817 5818 5819 5821 5823 5824 5825 5827 5828 5829 5830 5831 5832 5832 5832 5833 5832 5832 5832 5832 5831 5830 5829 5828 5827 5826 5824 5822 5820 5818 5816 5814 5811
5781 5785 5787 5789 5791 5794 5796 5799 5801 5803 5806 5808 5810 5811 5813 5815 5816 5817 5819 5820 5821 5822 5824 5824 5825 5825 5825 5825 5825 5825 5825 5824 5824 5823 5822 5820 5819 5817 5815 5813 5811 5809 5806 5804
5769 5772 5775 5778 5780 5783 5786 5788 5791 5793 5796 5798 5800 5803 5805 5806 5808 5809 5811 5812 5814 5815 5816 5817 5817 5818 5818 5818 5818 5818 5817 5817 5816 5816 5814 5813 5812 5810 5808 5806 5804 5801 5798 5796
5758 5761 5764 5767 5770 5772 5775 5778 5780 5783 5785 5788 5790 5793 5795 5797 5799 5800 5802 5804 5805 5806 5808 5808 5809 5810 5810 5810 5810 5810 5810 5810 5809 5808 5807 5806 5805 5803 5801 5799 5797 5794 5791 5788
5748 5750 5753 5756 5759 5761 5764 5767 5770 5773 5775 5778 5781 5783 5786 5788 5790 5791 5793 5795 5796 5798 5799 5800 5801 5801 5802 5802 5802 5802 5802 5802 5801 5800 5799 5798 5797 5795 5793 5792 5789 5787 5784 5781
5736 5738 5741 5744 5747 5750 5753 5756 5759 5762 5765 5768 5771 5773 5776 5778 5780 5782 5784 5786 5787 5788 5789 5791 5792 5793 5793 5793 5793 5794 5794 5793 5793 5792 5791 5790 5789 5787 5786 5784 5782 5779 5777 5774
5725 5727 5730 5733 5736 5739 5742 5745 5748 5751 5754 5757 5760 5763 5766 5768 5770 5772 5774 5776 5778 5779 5780 5782 5783 5783 5784 5784 5785 5785 5785 5785 5785 5784 5783 5782 5781 5780 5778 5776 5774 5772 5769 5767
5714 5716 5719 5722 5725 5728 5731 5733 5737 5740 5743 5746 5749 5752 5755 5758 5760 5762 5764 5766 5768 5769 5771 5772 5773 5774 5774 5775 5776 5776 5776 5776 5776 5775 5774 5774 5773 5772 5770 5769 5767 5764 5762 5759
5704 5706 5709 5712 5715 5718 5720 5723 5726 5729 5732 5735 5738 5741 5744 5747 5749 5751 5754 5756 5758 5759 5761 5762 5764 5764 5765 5765 5766 5766 5767 5767 5767 5766 5766 5765 5764 5763 5762 5761 5759 5756 5754 5752
5694 5697 5699 5702 5705 5708 5710 5712 5715 5718 5721 5724 5728 5731 5734 5736 5739 5742 5744 5746 5748 5749 5751 5752 5753 5754 5754 5755 5756 5757 5758 5758 5758 5757 5757 5756 5756 5755 5754 5752 5750 5748 5746 5744
5685 5688 5690 5693 5696 5698 5700 5702 5705 5707 5710 5714 5717 5720 5723 5726 5729 5731 5734 5736 5737 5739 5740 5742 5743 5744 5745 5746 5747 5748 5748 5748 5748 5748 5748 5748 5747 5746 5745 5743 5742 5740 5738 5736
5677 5679 5682 5684 5686 5689 5691 5693 5695 5697 5700 5703 5707 5710 5713 5716 5718 5721 5723 5725 5727 5729 5731 5732 5733 5735 5736 5737 5738 5739 5739 5739 5740 5740 5740 5739 5738 5737 5736 5734 5733 5731 5729 5727
5669 5671 5673 5675 5678 5680 5682 5684 5686 5688 5691 5694 5697 5700 5702 5705 5707 5710 5712 5715 5717 5719 5721 5722 5723 5725 5726 5727 5728 5729 5730 5730 5731 5731 5731 5730 5729 5728 5727 5726 5724 5723 5721 5719
5661 5663 5665 5667 5669 5671 5673 5675 5677 5680 5683 5685 5688 5690 5693 5695 5697 5699 5702 5704 5707 5709 5711 5713 5714 5716 5717 5718 5719 5719 5720 5721 5722 5722 5722 5721 5720 5720 5718 5717 5716 5714 5712 5710
5653 5655 5657 5659 5661 5663 5665 5668 5670 5672 5674 5677 5679 5681 5683 5685 5687 5689 5692 5695 5697 5699 5701 5703 5704 5706 5707 5708 5709 5710 5711 5712 5712 5713 5713 5712 5711 5710 5709 5708 5707 5706 5704 5702
5645 5647 5649 5652 5654 5656 5658 5660 5663 5665 5667 5669 5671 5672 5674 5676 5678 5680 5683 5686 5687 5689 5691 5693 5695 5696 5697 5698 5699 5701 5702 5702 5703 5703 5703 5703 5702 5701 5700 5699 5698 5697 5695 5693
5639 5641 5643 5645 5647 5649 5652 5654 5656 5658 5660 5661 5663 5665 5666 5668 5670 5672 5674 5676 5678 5679 5681 5683 5685 5686 5688 5689 5690 5691 5692 5693 5694 5694 5694 5693 5693 5692 5691 5690 5689 5688 5686 5685
5634 5635 5637 5639 5640 5643 5645 5647 5649 5651 5652 5654 5655 5657 5659 5660 5662 5664 5665 5667 5669 5670 5672 5673 5675 5677 5678 5680 5681 5682 5683 5684 5684 5684 5684 5684 5683 5683 5682 5681 5680 5678 5677 5675
5629 5630 5631 5633 5635 5637 5639 5641 5643 5644 5645 5647 5648 5650 5651 5653 5654 5656 5657 5659 5660 5661 5663 5664 5666 5668 5669 5671 5672 5673 5674 5674 5674 5675 5675 5674 5674 5673 5672 5671 5670 5669 5668 5666
5625 5626 5627 5628 5630 5632 5634 5635 5637 5638 5639 5640 5642 5643 5644 5646 5647 5649 5650 5651 5652 5653 5654 5656 5657 5659 5660 5662 5663 5664 5664 5665 5665 5665 5665 5665 5665 5664 5663 5662 5661 5660 5659 5657